{"data":{"norad_id":19548,"epoch":"2026-05-24T10:23:55.612320Z","epoch_age_seconds":124177,"freshness":"FRESH","line1":"1 19548U 88091B   26144.43328255 -.00000311  00000+0  00000+0 0  9996","line2":"2 19548  12.6199 341.1646 0039402 357.7121  10.0325  1.00264589125156","mean_motion":1.00264589,"eccentricity":0.0039402,"inclination_deg":12.6199,"raan_deg":341.1646,"arg_perigee_deg":357.7121,"mean_anomaly_deg":10.0325,"bstar":0,"rev_number":12515,"period_min":1436.1999728538,"perigee_km":35622.466955949,"apogee_km":35954.757807778,"semimajor_km":42166.749381864,"source":"CELESTRAK","updated_at":"2026-05-25T13:38:13.803121Z"}}